Flag for Belgium Weather past 2 weeks in Ghent, Belgium

Now
70 °F

Mild.


Feels Like: 70 °F
Forecast: 53 / 78 °F
Wind: 3 mph from North

Location: Munte

Current Time: Jul 31, 2014 at 9:57:48 PM

Latest Report: Jul 31, 2014 at 9:00 PM


Visibility: 17 mi

Pressure: 29.93 "Hg

Humidity: 68%

Dew point: 59 °F

Location of GhentLocation

Historic Weather in Ghent — Graph

°F

Ghent temperature yesterday

Maximum temperature yesterday: 71 °F (at 2:00 PM)
Minimum temperature yesterday: 58 °F (at 6:00 AM)
Average temperature yesterday: 64 °F

Past Weeks' High & Low Weather Summary

 TemperatureHumidityPressure
High90 °F (Jul 18, 6:00 PM)100% (Jul 20, 5:00 AM)30.18 "Hg (Jul 20, 5:00 AM)
Low56 °F (Jul 31, 1:00 AM)34% (Jul 31, 5:00 PM)29.76 "Hg (Jul 19, 8:00 PM)
Average69 °F79%29.97 "Hg
* Reported Jul 16 8:00 PM — Jul 31 8:00 PM, Ghent, Weather by CustomWeather, © 2014

Note: Actual official high and low records may vary slightly from our data, if they occured in-between our weather recording intervals... More about our weather records

Advertising

Ghent weather history for previous 24 hours

 ConditionsComfort  
Time TempWeatherWind HumidityBarometerVisibility
8:00 PM
Jul 31
72 °FMild.3 mph65%29.92 "Hg12 mi
7:00 PM76 °FMild.N/A43%29.92 "Hg25 mi
6:00 PM78 °FPleasantly warm.2 mph37%29.93 "Hg28 mi
5:00 PM79 °FScattered clouds.N/A34%29.94 "Hg22 mi
4:00 PM78 °FScattered clouds.3 mph35%29.96 "Hg22 mi
3:00 PM77 °FPartly sunny.3 mph39%29.97 "Hg19 mi
2:00 PM75 °FPartly sunny.3 mph44%29.98 "Hg19 mi
1:00 PM74 °FScattered clouds.3 mph46%29.99 "Hg16 mi
12:00 PM73 °FScattered clouds.2 mph47%30.01 "Hg16 mi
11:00 AM71 °FScattered clouds.2 mph57%30.01 "Hg16 mi
10:00 AM67 °FPassing clouds.2 mph65%30.02 "Hg16 mi
9:00 AM64 °FPassing clouds.N/A76%30.02 "Hg9 mi
8:00 AM61 °FPassing clouds.N/A78%30.02 "Hg9 mi
7:00 AM60 °FPassing clouds.N/A77%30.02 "Hg7 mi
6:00 AM58 °FClear.N/A80%30.02 "Hg7 mi
5:00 AM59 °FCool.N/A79%30.02 "Hg9 mi
4:00 AM57 °FCool.2 mph83%30.03 "Hg7 mi
3:00 AM56 °FCool.N/A89%30.03 "Hg10 mi
2:00 AM56 °FCool.N/A91%30.03 "Hg11 mi
1:00 AM56 °FCool.N/A91%30.03 "Hg14 mi
12:00 AM58 °FCool.N/A86%30.03 "Hg18 mi
11:00 PM
Jul 30
58 °FCool.N/A88%30.03 "Hg19 mi
10:00 PM60 °FCool.2 mph82%30.02 "Hg16 mi
9:00 PM65 °FMild.3 mph68%30.01 "Hg25 mi
Weather by CustomWeather, © 2014

See weather overviewHow to use our weather pages